GW0007 Weather Reports


Display with metric or nautical units.
time (UTC)temp
F
wind
direction
speed
MPH
gust
MPH
rain 1hr
in
rain 24hr
in
rain mn
in
humidity
%
barometer
mb
20260506044543 33 0 0.0 0.0 0.00 0.04 0.04 80 1019.2
20260506043043 34 0 0.0 0.0 0.00 0.04 0.04 78 1019.3
20260506041542 34 317 0.0 4.0 0.00 0.04 0.04 75 1019.3
20260506040047 36 0 0.0 1.0 0.00 0.04 0.04 65 1019.2
20260506034543 36 283 1.0 3.0 0.00 0.04 0.04 66 1019.3
20260506033047 37 232 1.0 3.0 0.00 0.04 0.04 67 1019.2
20260506031543 37 117 0.0 2.0 0.00 0.04 0.04 66 1019.1
20260506030044 38 27 2.0 6.0 0.00 0.04 0.04 66 1018.7
20260506024547 39 333 3.0 7.0 0.00 0.04 0.04 66 1018.5
20260506023054 39 349 4.0 11.0 0.00 0.04 0.04 66 1018.4
20260506021540 39 338 5.0 10.0 0.00 0.04 0.04 65 1018.3
20260506020043 40 22 7.0 16.0 0.00 0.04 0.04 63 1018.0
20260506014545 42 360 7.0 16.0 0.00 0.04 0.04 53 1017.9
20260506013040 42 20 9.0 18.0 0.00 0.04 0.04 51 1017.9
20260506011542 43 39 14.0 20.0 0.00 0.04 0.04 51 1017.8
20260506010048 46 31 4.0 16.0 0.00 0.04 0.04 48 1017.5
20260506004548 45 6 9.0 13.0 0.00 0.04 0.04 49 1017.5
20260506003042 44 8 7.0 16.0 0.00 0.04 0.04 52 1017.4
20260506001546 42 330 10.0 21.0 0.00 0.04 0.04 57 1017.3
20260506000038 41 355 11.0 18.0 0.00 0.04 0.04 61 1017.2
20260505234556 40 337 14.0 26.0 0.00 0.04 0.04 65 1017.4
20260505233042 40 345 12.0 23.0 0.00 0.04 0.04 64 1017.3
20260505231540 39 350 12.0 29.0 0.00 0.04 0.04 71 1017.2
20260505230038 40 359 19.0 34.0 0.00 0.04 0.04 68 1017.2
20260505224544 45 124 1.0 11.0 0.00 0.04 0.04 57 1016.4
20260505223044 44 333 2.0 5.0 0.00 0.04 0.04 55 1016.3
20260505221544 45 274 2.0 9.0 0.00 0.04 0.04 58 1016.2
20260505220042 44 231 4.0 12.0 0.00 0.04 0.04 63 1016.4
20260505214600 43 281 5.0 17.0 0.00 0.04 0.04 66 1016.4
20260505213056 43 248 8.0 15.0 0.00 0.04 0.04 71 1016.5
20260505211543 42 340 9.0 17.0 0.00 0.04 0.04 72 1016.7
20260505210045 41 224 9.0 17.0 0.00 0.04 0.04 73 1016.9
20260505204550 40 217 6.0 12.0 0.00 0.04 0.04 75 1016.9
20260505203045 40 256 7.0 14.0 0.00 0.04 0.04 75 1017.1
20260505201539 43 300 6.0 13.0 0.00 0.04 0.04 72 1016.7
20260505200058 42 317 7.0 12.0 0.03 0.04 0.04 63 1017.0
20260505194548 40 323 3.0 9.0 0.04 0.04 0.04 71 1017.2
20260505193043 39 345 6.0 11.0 0.04 0.04 0.04 75 1017.4
20260505191541 37 328 11.0 18.0 0.04 0.04 0.04 77 1017.6
20260505190039 37 353 8.0 14.0 0.01 0.01 0.01 78 1017.7
20260505184536 36 332 7.0 9.0 0.00 0.00 0.00 81 1017.6
20260505183042 39 252 7.0 24.0 0.00 0.00 0.00 69 1017.0
20260505181542 43 218 8.0 16.0 0.00 0.00 0.00 55 1016.5
20260505180101 45 288 5.0 9.0 0.00 0.00 0.00 48 1016.4
20260505174555 45 288 4.0 11.0 0.00 0.00 0.00 46 1016.5
20260505173043 47 326 3.0 9.0 0.00 0.00 0.00 45 1016.4
20260505171543 44 309 4.0 9.0 0.00 0.00 0.00 48 1016.7
20260505170043 45 219 4.0 8.0 0.00 0.00 0.00 47 1017.0
20260505164545 44 354 2.0 7.0 0.00 0.00 0.00 48 1017.0
20260505163037 44 264 4.0 10.0 0.00 0.00 0.00 49 1017.1
20260505161538 43 272 2.0 4.0 0.00 0.00 0.00 48 1017.1
20260505153043 41 21 4.0 7.0 0.00 0.00 0.00 51 1017.4
20260505151540 42 87 2.0 5.0 0.00 0.00 0.00 50 1017.5
20260505124540 31 93 0.0 1.0 0.00 0.00 0.00 75 1017.1
20260505123054 31 85 1.0 2.0 0.00 0.00 0.00 74 1017.0
20260505121543 31 91 1.0 3.0 0.00 0.00 0.00 75 1017.0
20260505120042 30 80 0.0 2.0 0.00 0.00 0.00 75 1017.0
20260505114542 30 67 1.0 3.0 0.00 0.00 0.00 75 1017.1
20260505113041 30 29 1.0 4.0 0.00 0.00 0.00 77 1017.3
20260505111545 30 98 1.0 3.0 0.00 0.00 0.00 74 1017.1
20260505101538 32 74 2.0 5.0 0.00 0.00 0.00 69 1017.1
20260505100035 32 20 3.0 7.0 0.00 0.00 0.00 70 1017.3
20260505094536 33 9 2.0 5.0 0.00 0.00 0.00 68 1017.3
20260505093039 33 0 0.0 7.0 0.00 0.00 0.00 68 1017.1
20260505091559 33 43 3.0 5.0 0.00 0.00 0.00 66 1017.1
20260505090044 34 75 2.0 5.0 0.00 0.00 0.00 64 1017.3
20260505084546 35 340 2.0 5.0 0.00 0.00 0.00 62 1017.2
20260505083036 35 0 1.0 4.0 0.00 0.00 0.00 61 1016.9
20260505081539 36 45 5.0 8.0 0.00 0.00 0.00 59 1016.8
20260505080046 37 51 8.0 15.0 0.00 0.00 0.00 58 1016.6
20260505074542 38 44 8.0 13.0 0.00 0.00 0.00 57 1016.5
20260505073038 40 32 6.0 12.0 0.00 0.00 0.00 56 1016.4
20260505071550 40 79 0.0 4.0 0.00 0.00 0.00 58 1016.1
20260505070041 41 83 1.0 3.0 0.00 0.00 0.00 55 1015.9
20260505064542 42 0 1.0 4.0 0.00 0.00 0.00 55 1015.8
20260505063058 42 74 2.0 7.0 0.00 0.00 0.00 53 1015.7
20260505061606 41 82 8.0 13.0 0.00 0.00 0.00 55 1015.5
20260505060039 42 64 2.0 7.0 0.00 0.00 0.00 56 1015.6
20260505054548 43 86 3.0 5.0 0.00 0.00 0.00 52 1015.6
20260505053052 44 80 5.0 8.0 0.00 0.00 0.00 51 1015.6